Home   Weather   Fairfield   Past weeks
Flag for USA

Past Weather in Fairfield, Illinois, USA — Yesterday and Last 2 Weeks

Now
35 °F

Overcast.


Feels Like: 27 °F
Forecast: 36 / 26 °F
Wind: 10 mph from Northwest

Location: Chicago Midway Airport

Current Time: Dec 14, 2019 at 1:01:29 pm

Latest Report: Dec 14, 2019 at 11:53 am


Visibility: 7 mi

Pressure: 29.73 "Hg

Humidity: 78%

Dew Point: 29 °F

Location of FairfieldLocation

Past Weather in Fairfield — Graph

°F

Fairfield Temperature Yesterday

Maximum temperature yesterday: 45 °F (at 2:53 pm)
Minimum temperature yesterday: 36 °F (at 9:53 pm)
Average temperature yesterday: 39 °F

High & Low Weather Summary for the Past Weeks

 TemperatureHumidityPressure
High49 °F (Dec 9, 2:53 pm)100% (Dec 1, 12:53 am)30.58 "Hg (Dec 1, 12:53 am)
Low14 °F (Dec 11, 4:53 am)42% (Dec 10, 1:53 pm)29.29 "Hg (Dec 1, 4:35 am)
Average35 °F75%29.97 "Hg
* Reported Nov 29 10:53 am — Dec 14 10:53 am, Fairfield. Weather by CustomWeather, © 2019

Note: Actual official high and low records may vary slightly from our data, if they occured in-between our weather recording intervals... More about our weather records

Fairfield Weather History for the Previous 24 Hours

Scroll right to see more
 ConditionsComfort  
Time TempWeatherWind HumidityBarometerVisibility
10:53 am
Sat, Dec 14
35 °FMostly cloudy.10 mph82%29.74 "Hg7 mi
10:13 am35 °FMostly cloudy.12 mph82%29.71 "Hg7 mi
9:53 am35 °FOvercast.9 mph82%29.73 "Hg7 mi
8:53 am34 °FOvercast.9 mph82%29.73 "Hg7 mi
7:53 am33 °FPartly sunny.7 mph88%29.73 "Hg8 mi
7:10 am31 °FPartly sunny.3 mph89%29.70 "Hg8 mi
6:53 am33 °FPassing clouds.3 mph88%29.72 "Hg8 mi
5:53 am34 °FPassing clouds.6 mph85%29.72 "Hg10 mi
5:13 am33 °FPassing clouds.3 mph85%29.71 "Hg10 mi
4:53 am32 °FPartly cloudy.No wind85%29.73 "Hg10 mi
3:53 am32 °FPassing clouds.3 mph85%29.73 "Hg10 mi
2:53 am34 °FPassing clouds.No wind82%29.73 "Hg10 mi
1:53 am34 °FPassing clouds.No wind82%29.75 "Hg10 mi
12:53 am35 °FPassing clouds.No wind78%29.76 "Hg10 mi
11:53 pm
Fri, Dec 13
36 °FPassing clouds.No wind75%29.78 "Hg10 mi
10:53 pm36 °FOvercast.No wind75%29.80 "Hg10 mi
9:53 pm36 °FPassing clouds.No wind75%29.82 "Hg10 mi
8:53 pm38 °FPassing clouds.3 mph70%29.83 "Hg9 mi
7:53 pm38 °FOvercast.No wind68%29.84 "Hg10 mi
6:53 pm40 °FPartly cloudy.5 mph63%29.86 "Hg10 mi
5:53 pm41 °FPassing clouds.7 mph60%29.88 "Hg10 mi
4:53 pm42 °FPassing clouds.6 mph57%29.87 "Hg10 mi
3:53 pm43 °FScattered clouds.6 mph56%29.87 "Hg10 mi
2:53 pm45 °FScattered clouds.10 mph51%29.88 "Hg10 mi
1:53 pm44 °FPassing clouds.5 mph58%29.88 "Hg10 mi
Weather by CustomWeather, © 2019

See weather overview

Advertising